Tracking 18843 objects as of 20-November-2017
HD Live streaming from Space Station
objects crossing your sky now

FENGYUN 1C DEB

Track FENGYUN 1C DEB now!
10-day predictions


NORAD ID: 30625
Int'l Code: 1999-025ANG
Perigee: 817.0 km
Apogee: 942.0 km
Inclination: 98.9 °
Period: 102.4 minutes
Semi major axis: 7250 km
RCS: 0.017 m2 (small)
Launch date: May 10, 1999
Source: People's Republic of China (PRC)
Launch site: Taiyaun Space Center, China (TSC)

Note: This is SATELLITE DEBRIS
aabbcc
Your satellite tracking list
Your tracking list is empty




NASA's NSSDC Master Catalog

Two Line Element Set (TLE):
1 30625U 99025ANG 17323.74472156 +.00001508 +00000-0 +91146-3 0  9991
2 30625 098.9200 240.6988 0086218 012.3803 347.9456 14.06218463550660
Source of the keplerian elements: AFSPC